Regional Weather Roundup
Issued by NWS Charleston, SC

Current Version | Previous Version | Text Only | Print | Product List | Glossary Off
Versions: 1 2 3 4 5 6 7 8 9 10 11 12 13 14 15 16 17 18 19 20 21 22 23 24 25 26 27 28 29 30 31 32 33 34 35 36 37 38 39 40 41 42 43 44 45 46 47 48 49 50

000
ASUS42 KCHS 211610
RWRCHS

REGIONAL WEATHER ROUNDUP
NATIONAL WEATHER SERVICE CHARLESTON SC
1200 PM EDT SUN SEP 21 2014

NOTE: "FAIR" INDICATES FEW OR NO CLOUDS BELOW 12,000 FEET WITH NO
SIGNIFICANT WEATHER AND/OR OBSTRUCTIONS TO VISIBILITY.

NOT ALL STATIONS ARE QUALITY CONTROLLED BY THE NATIONAL
WEATHER SERVICE. USE DATA WITH CAUTION...ESPECIALLY
DEWPOINT OBSERVATIONS.

SCZ027-030-031-034>040-042>050-211700-
...SOUTH CAROLINA...

CITY           SKY/WX    TMP DP  RH WIND       PRES   REMARKS
N CHARLESTON   MOSUNNY   83  61  47 NW9       29.97F
WATERFRONT PRK   N/A     81 N/A N/A NW8G14      N/A
FORT JOHNSON   NOT AVBL
MOUNT PLEASANT FAIR      81  63  54 NW10      29.97F
JOHNS ISLAND   SUNNY     82  73  74 W13       29.98F
PINOPOLIS        N/A     77  64  65 NW5       29.91R
MONCKS CORNER    N/A     81  66  61 NW3       29.97F
SUMMERVILLE    FAIR      81  63  54 W6        29.98F
BEAUFORT MCAS  SUNNY     82  62  50 SE8       29.99F
BEAUFORT ARPT  FAIR      81  63  54 NW9       29.99F
HILTON HEAD IS SUNNY     81  64  57 NW7       30.01F
GEORGETOWN     NOT AVBL
WALTERBORO     SUNNY     82  55  39 W9        29.99F
ORANGEBURG     SUNNY     81  61  50 W10       29.98F
BARNWELL       FAIR      82  63  51 W10       30.00F
AIKEN          FAIR      81  64  57 W12G20    30.03F
MANNING        FAIR      81  63  54 W6        29.97F
KINGSTREE      NOT AVBL
COLUMBIA       SUNNY     83  60  45 W12       29.97F
SUMTER         SUNNY     81  63  54 W10       29.95F
FLORENCE       MOSUNNY   81  61  50 NW9       29.94F
MYRTLE BEACH   MOSUNNY   79  63  57 NW14      29.93F
N MYRTLE BEACH MOSUNNY   77  63  61 VRB6      29.92S

$$

GAZ063-065-086>088-099>101-113>116-118-119-134-136>141-150-211700-
...GEORGIA...

CITY           SKY/WX    TMP DP  RH WIND       PRES   REMARKS
SAVANNAH ARPT  MOSUNNY   83  62  49 NW10      30.01F
HUNTER AAF     SUNNY     82  64  55 NW10      29.99F
FORT STEWART   SUNNY     82  62  50 NW9       30.01F
STATESBORO     NOT AVBL
SYLVANIA       SUNNY     83  67  57 W3        30.02F
CLAXTON        FAIR      82  66  57 NW6       30.02F
THOMSON        SUNNY     82  69  65 W9        30.06F
AUGUSTA-BUSH   SUNNY     84  62  47 NW13      30.00F
AUGUSTA-DANIEL SUNNY     83  62  49 NW13G20   30.02F
SWAINSBORO     FAIR      82  64  54 W8        30.04F
VIDALIA        SUNNY     82  63  51 W7        30.04F
ALMA           SUNNY     83  61  47 VRB7      30.04F
WAYCROSS       NOT AVBL
JESUP          FAIR      86  64  48 N6        30.03F
BRUNSWICK      SUNNY     82  64  54 NW6       30.03S
SAINT SIMONS   SUNNY     81  63  54 W8        30.02F

$$

SCZ027-028-034-036>038-045-046-048>050-GAZ119-141-211700-
...LAKE AND SUPPLEMENTAL COASTAL OBSERVATIONS...

STATION/POSITION TIME  TEMP    WIND        PRES    WAVE   SWELL
                       AIR SEA DIR/SP/G            HT/PER HT/PER/DIR
                 (UTC) (F)     (DEG/KT/KT) (MB)    (FT/S) (FT/S/D)
UPR LAKE MARION  NOT AVBL
WINYAH BAY       1500   75     320/  9     1014.0S
LAKE MURRAY      1500   76     270/ 10/ 14 1014.9S
ACE BASIN NERRS  1500   77     330/  2     1016.0S
FORT PULASKI     1600   78     290/  9/ 10 1016.3F
SAPELO ISLAND    1500   78     300/  4     1017.0S

$$

ANZ835-935-AMZ111-154-330-350-352-354-374-450-454-472-211700-
...C-MAN AND BUOY OBSERVATIONS...

STATION/POSITION TIME  TEMP    WIND        PRES    WAVE   SWELL
                       AIR SEA DIR/SP/G            HT/PER HT/PER/DIR
                 (UTC) (F)     (DEG/KT/KT) (MB)    (FT/S) (FT/S/D)
FOLLY BEACH CMAN 1500   78     330/  5/  7 1015.7R
BUOY 41004       1600   76 81  320/ 17/ 19 1013.8S   5/ 4   2/11
BUOY 41008       1600   76 83  340/ 10/ 12 1016.3F   3/ 7   3/ 70/ 7
5E ST. MARYS GA  1600      83                N/A     3/10
FRYING PAN BUOY  NOT AVBL
BUOY 41025       1600   76     320/ 25/ 29 1005.7R   9/ 9   7/110/ 9
CAPE LOOKOUT NC  1500   74     320/ 15/ 18 1009.0R
BUOY 41002       1456   80 81  270/ 21/ 25 1011.2   11/ 9   7/210/ 9
BUOY 41010       1600   81 85  300/ 10/ 12 1015.9F   4/ 9   3/ 10/ 9
BUOY 41012       NOT AVBL
ST AUGUSTINE FL  1600   76     360/  8/ 10 1017.6F
CAPERS NEARSHORE 1500   75     320/  8/ 10   N/A
FRIPP NEARSHORE  NOT AVBL


$$


USA.gov is the U.S. government's official web portal to all federal, state and local government web resources and services.